#timestamp,LO_Frequency,Hit 
1501077615.3,286046991.8,N
1501077635.1,286046991.9,N
1501077655.8,286046992.8,N
1501077675.7,286046992.1,N
1501077695.5,286046991.8,N
1501077715.3,286046996.4,N
1501077735.2,286046997.6,N
1501077755.9,286046996.0,N
1501077775.7,286046997.4,N
1501077795.6,286046999.1,N
1501077815.4,286046999.6,N
1501077835.2,286046996.0,N
1501077855.0,286046996.0,N
1501077855.9,286046996.0,N
1501077875.8,286046990.8,N
1501077895.6,286046989.6,N
1501077915.4,286046987.8,N
1501077935.3,286046987.0,N
1501077955.1,286046989.7,N
1501077975.8,286046988.1,N
1501077995.7,286046985.6,N
1501078015.5,286046985.9,N
1501078035.3,286046986.0,N
1501078055.2,286046985.1,N
1501078075.9,286046982.7,N
1501078095.7,286046982.2,N
1501078115.5,286046983.4,N
1501078135.4,286046983.5,N
1501078155.2,286046981.4,N
1501078175.0,286046979.0,N
1501078175.9,286046979.0,N
1501078195.8,286046980.2,N
1501078215.6,286046975.9,N
1501078235.4,286046977.9,N
1501078255.3,286046977.9,N
1501078275.1,286046979.8,N
1501078276.0,286046979.8,N
1501078295.8,286046981.5,N
1501078315.7,286046980.0,N
1501078335.5,286046981.3,N
1501078355.3,286046979.7,N
1501078375.2,286046981.0,N
1501078395.9,286046982.7,N
1501078415.7,286046984.2,N
1501078435.5,286046985.9,N
1501078455.4,286046984.3,N
1501078475.2,286046987.7,N
1501078495.0,286046987.1,N
1501078495.9,286046987.1,N
1501078515.8,286046987.7,N
1501078535.6,286046989.6,N
1501078555.4,286046989.8,N
1501078575.3,286046987.9,N
1501078595.1,286046987.7,N
1501078596.0,286046987.7,N
1501078615.8,286046991.7,N
1501078635.7,286046990.4,N
1501078655.5,286046988.9,N
1501078675.3,286046991.1,N
1501078695.1,286046991.3,N
1501078715.9,286046993.1,N
1501078735.7,286046991.2,N
1501078755.5,286046988.9,N
1501078775.4,286046990.9,N
1501078795.2,286046988.9,N
1501078815.0,286046993.1,N
1501078815.9,286046993.1,N
1501078835.8,286046990.2,N
1501078855.6,286046993.6,N
1501078875.4,286046996.2,N
1501078895.3,286046996.1,N
1501078915.1,286046994.0,N
1501078916.0,286046994.0,N
1501078935.8,286046992.2,N
1501078955.6,286046994.3,N
1501078975.5,286046995.2,N
1501078995.3,286046996.3,N
1501079015.1,286046994.5,N
1501079035.9,286046990.1,N
1501079055.7,286046992.0,N
1501079075.5,286046993.1,N
1501079095.4,286046996.2,N
1501079115.2,286046994.9,N
1501079135.0,286046997.9,N
1501079135.9,286046997.9,N
1501079155.7,286046996.2,N
1501079175.6,286046997.0,N
1501079195.4,286046997.4,N
1501079215.2,286046995.2,N
1501079235.1,286046995.0,N
1501079236.0,286046995.0,N
1501079255.8,286046995.0,N
1501079275.6,286047001.0,N
1501079295.5,286046998.8,N
1501079315.3,286046998.5,N
1501079335.1,286046997.2,N
1501079355.9,286046997.0,N
1501079375.7,286046997.8,N
1501079395.5,286046995.2,N
1501079415.3,286046994.5,N
1501079435.2,286046994.5,N
1501079455.0,286046995.9,N
1501079455.9,286046995.9,N
1501079475.7,286046994.6,N
1501079495.6,286046996.0,N
1501079515.4,286046998.0,N
1501079535.2,286046999.2,N
1501079555.1,286046996.5,N
1501079556.0,286046996.5,N
1501079575.8,286047001.9,N
1501079595.6,286047000.2,N
1501079615.5,286047001.3,N
1501079635.3,286047005.5,N
1501079655.1,286047005.6,N
1501079675.9,286047005.2,N
1501079695.7,286047003.2,N
1501079715.5,286047003.6,N
1501079735.3,286047002.1,N
1501079755.2,286047001.6,N
1501079775.9,286047002.2,N
1501079795.7,286047004.1,N
1501079815.6,286047004.2,N
1501079835.4,286047002.0,N
1501079855.2,286047003.9,N
1501079875.1,286047004.2,N
1501079876.0,286047004.2,N
1501079895.8,286047003.6,N
1501079915.6,286047005.5,N
1501079935.4,286047005.6,N
1501079955.3,286047001.4,N
1501079975.1,286047003.2,N
1501079995.8,286047003.7,N
1501080015.7,286047002.9,N
1501080035.5,286047001.6,N
1501080055.3,286047003.0,N
1501080075.2,286047004.0,N
1501080095.9,286047004.8,N
1501080115.7,286047007.6,N
1501080135.6,286047007.5,N
1501080155.4,286047007.4,N
1501080175.2,286047010.4,N
1501080195.0,286047010.5,N
1501080196.0,286047010.5,N
1501080215.8,286047010.9,N
1501080235.6,286047014.5,N
1501080255.4,286047014.3,N
1501080275.3,286047012.5,N
1501080295.1,286047013.4,N
1501080315.8,286047017.1,N
1501080335.7,286047014.8,N
1501080355.5,286047015.2,N
1501080375.3,286047010.6,N
1501080395.2,286047007.9,N
1501080415.9,286047011.5,N
1501080435.7,286047010.4,N
1501080455.6,286047008.0,N
1501080475.4,286047006.3,N
1501080495.2,286047006.8,N
1501080515.0,286047008.0,N
1501080515.9,286047008.0,N
1501080535.8,286047009.0,N
1501080555.6,286047006.4,N
1501080575.4,286047005.6,N
1501080595.3,286047006.2,N
1501080615.1,286047004.8,N
1501080635.8,286047011.5,N
1501080655.7,286047010.5,N
1501080675.5,286047008.0,N
1501080695.3,286047010.6,N
1501080715.2,286047008.7,N
1501080735.9,286047008.3,N
1501080755.7,286047009.0,N
1501080775.5,286047007.6,N
1501080795.4,286047006.1,N
1501080815.2,286047008.0,N
1501080835.0,286047005.7,N
1501080835.9,286047005.7,N
1501080855.8,286047004.4,N
1501080875.6,286047005.2,N
1501080895.4,286047003.7,N
1501080915.3,286047003.1,N
1501080935.1,286047006.8,N
1501080936.0,286047006.8,N
1501080955.8,286047005.1,N
1501080975.7,286047005.3,N
1501080995.5,286047006.7,N
1501081015.3,286047008.4,N
1501081035.2,286047008.8,N
1501081055.9,286047008.4,N
1501081075.7,286047009.4,N
1501081095.6,286047012.0,N
1501081115.4,286047009.8,N
1501081135.2,286047011.2,N
1501081155.1,286047010.4,N
1501081156.0,286047010.4,N
1501081175.8,286047009.4,N
1501081195.6,286047011.9,N
